Location: Dennis Manor
(64.8292°N, 147.5397°W)
Time: 09:01:10
(UTC+00:00)

Envisat - Pass Details

Date: 27 October 2020
Orbit: 764 x 766 km, 98.1° (Epoch: 05 December)

Event Time Altitude Azimuth Distance (km) Brightness Sun altitude
Rises 05:00:48 0° 233° (SW) 3,235 6.8 -20.8°
Reaches altitude 10° 05:04:46 10° 265° (W) 2,314 6.5 -21.3°
Maximum altitude 05:06:41 12° 287° (WNW) 2,181 6.5 -21.4°
Drops below altitude 10° 05:08:35 10° 309° (NW) 2,319 6.4 -21.6°
Sets 05:12:35 0° 340° (NNW) 3,251 6.8 -22.1°
